Weather History for KRDG - February, 2014

Change the Weather History Date:

Friday, February 14, 2014

  Actual Average Record
Temperature  
Mean Temperature 33 °F 32 °F  
Max Temperature 42 °F 41 °F 66 °F (1946)
Min Temperature 24 °F 23 °F -4 °F (1983)
Degree Days  
Heating Degree Days 32 33  
Month to date heating degree days 558 480  
Since 1 July heating degree days 3804 3605  
Cooling Degree Days 0 0  
Month to date cooling degree days 0 0  
Year to date cooling degree days 0 0  
Moisture  
Dew Point 24 °F    
Average Humidity 64    
Maximum Humidity 85    
Minimum Humidity 43    
Precipitation  
Precipitation 0.10 in 0.09 in 1.60 in (2007)
Month to date precipitation 2.58 1.21  
Year to date precipitation 6.06 4.26  
Sea Level Pressure  
Sea Level Pressure 29.49 in    
Wind  
Wind Speed 11 mph (WNW)    
Max Wind Speed 28 mph    
Max Gust Speed 37 mph    
Visibility 9 miles    
Events Rain , Snow    
T = Trace of Precipitation, MM = Missing Value Source: NWS Daily Summary

Daily Weather History Graph

Daily Weather History Graph

Search for Another Location

Airport or City:

Trip Planner

Search our weather history database for the weather conditions in past years. The results will help you decide how hot, cold, wet, or windy it might be!

Date:

Astronomy

Feb. 14, 2014 Rise Set
Actual Time 6:58 AM EST 5:38 PM EST
Civil Twilight 6:30 AM EST 6:06 PM EST
Nautical Twilight 5:58 AM EST 6:37 PM EST
Astronomical Twilight 5:27 AM EST 7:09 PM EST
Moon 5:39 PM EST (2/14) 6:24 AM EST (2/14)
Length of Visible Light 11h 35m
Length of Day
10h 39m
Full, 100% of the Moon is Illuminated
Feb 14
Full
Feb 14
Full
Feb 22
Last Quarter
Mar 1
New
Mar 8
First Quarter

Hourly Weather History & Observations

Time (EST) Temp. Windchill Dew Point Humidity Pressure Visibility Wind Dir Wind Speed Gust Speed Precip Events Conditions
12:13 AM 30.0 °F 20.5 °F 28.0 °F 92% 29.24 in 0.8 mi WNW 11.5 mph - 0.00 in Snow Light Snow
12:17 AM 30.0 °F 20.0 °F 28.0 °F 92% 29.24 in 1.0 mi NW 12.7 mph - 0.01 in Snow Light Snow
12:27 AM 30.0 °F 20.0 °F 27.0 °F 88% 29.24 in 2.0 mi WNW 12.7 mph - 0.01 in Snow Light Snow
12:37 AM 30.9 °F 18.7 °F 26.1 °F 82% 29.23 in 3.0 mi NW 19.6 mph - 0.01 in Snow Light Snow
12:54 AM 32.0 °F 19.5 °F 26.1 °F 79% 29.25 in 7.0 mi WNW 21.9 mph - 0.01 in   Overcast
1:26 AM 32.0 °F 20.8 °F 26.1 °F 79% 29.24 in 10.0 mi WNW 17.3 mph 26.5 mph 0.00 in   Overcast
1:44 AM 32.0 °F 21.2 °F 26.1 °F 79% 29.24 in 10.0 mi WNW 16.1 mph - 0.00 in   Overcast
1:54 AM 33.1 °F 22.6 °F 25.0 °F 72% 29.27 in 10.0 mi WNW 16.1 mph 24.2 mph 0.00 in   Mostly Cloudy
2:54 AM 34.0 °F 22.7 °F 26.1 °F 73% 29.31 in 10.0 mi WNW 19.6 mph 28.8 mph N/A   Overcast
3:21 AM 34.0 °F 22.1 °F 27.0 °F 75% 29.30 in 9.0 mi WNW 21.9 mph 28.8 mph 0.00 in Snow Light Snow
3:54 AM 34.0 °F 23.8 °F 26.1 °F 73% 29.34 in 10.0 mi WNW 16.1 mph 26.5 mph 0.00 in   Mostly Cloudy
4:54 AM 34.0 °F 21.5 °F 26.1 °F 73% 29.38 in 10.0 mi WNW 24.2 mph 34.5 mph 0.00 in Rain Light Rain
5:54 AM 33.1 °F 23.0 °F 23.0 °F 66% 29.42 in 10.0 mi WNW 15.0 mph 23.0 mph 0.00 in   Clear
6:54 AM 32.0 °F 24.8 °F 19.0 °F 59% 29.43 in 10.0 mi West 8.1 mph - N/A   Clear
7:54 AM 30.9 °F 22.2 °F 16.0 °F 54% 29.47 in 10.0 mi West 10.4 mph - N/A   Clear
8:54 AM 33.1 °F 25.5 °F 16.0 °F 50% 29.50 in 10.0 mi West 9.2 mph - N/A   Clear
9:54 AM 35.1 °F 28.6 °F 17.1 °F 48% 29.52 in 10.0 mi West 8.1 mph - N/A   Partly Cloudy
10:54 AM 37.9 °F 28.9 °F 21.9 °F 53% 29.54 in 10.0 mi West 16.1 mph 26.5 mph N/A   Overcast
11:54 AM 39.0 °F 29.0 °F 25.0 °F 57% 29.55 in 10.0 mi WSW 20.7 mph 31.1 mph N/A   Partly Cloudy
12:54 PM 39.9 °F 31.8 °F 26.1 °F 58% 29.57 in 10.0 mi West 15.0 mph 23.0 mph N/A   Clear
1:54 PM 39.9 °F 32.9 °F 24.1 °F 53% 29.57 in 10.0 mi West 11.5 mph 24.2 mph N/A   Overcast
2:54 PM 42.1 °F 34.5 °F 21.9 °F 45% 29.60 in 10.0 mi West 15.0 mph 24.2 mph N/A   Overcast
3:54 PM 41.0 °F 32.8 °F 21.9 °F 47% 29.62 in 10.0 mi WNW 16.1 mph - N/A   Scattered Clouds
4:54 PM 41.0 °F 34.3 °F 21.9 °F 47% 29.66 in 10.0 mi WNW 11.5 mph - N/A   Clear
5:54 PM 37.9 °F 35.5 °F 23.0 °F 55% 29.70 in 10.0 mi West 3.5 mph - N/A   Clear
6:54 PM 32.0 °F 27.5 °F 23.0 °F 69% 29.75 in 10.0 mi NNW 4.6 mph - N/A   Clear
7:54 PM 30.9 °F - 23.0 °F 72% 29.77 in 10.0 mi Calm Calm - N/A   Clear
8:54 PM 28.0 °F - 21.9 °F 78% 29.77 in 9.0 mi Calm Calm - N/A   Clear
9:54 PM 28.0 °F - 21.9 °F 78% 29.77 in 10.0 mi Calm Calm - N/A   Clear
10:54 PM 27.0 °F - 23.0 °F 85% 29.78 in 9.0 mi Calm Calm - N/A   Overcast
11:54 PM 28.9 °F - 24.1 °F 82% 29.79 in 8.0 mi Calm Calm - N/A   Overcast